Flag for Italy Weather past 2 weeks in Bologna, Italy

Now
57 °F

Clear.


Feels Like: 55 °F
Forecast: 52 / 71 °F
Wind: 10 mph from Southwest

Location: Bologna / Borgo Panigale

Current Time: Apr 22, 2015 at 2:13:18 AM

Latest Report: Apr 22, 2015 at 1:20 AM


Visibility: 10 mi

Pressure: 30.21 "Hg

Humidity: 55%

Dew point: 41 °F

Location of BolognaLocation

Historic Weather in Bologna — Graph

°F

Bologna temperature yesterday

Maximum temperature yesterday: 73 °F (at 2:50 PM)
Minimum temperature yesterday: 46 °F (at 6:20 AM)
Average temperature yesterday: 61 °F

Past Weeks' High & Low Weather Summary

 TemperatureHumidityPressure
High79 °F (Apr 15, 3:50 PM)100% (Apr 11, 2:50 AM)30.45 "Hg (Apr 11, 2:50 AM)
Low34 °F (Apr 7, 6:20 AM)19% (Apr 8, 4:20 PM)29.89 "Hg (Apr 18, 4:20 AM)
Average57 °F61%30.21 "Hg
* Reported Apr 7 12:20 AM — Apr 22 12:50 AM, Bologna, Weather by CustomWeather, © 2015

Note: Actual official high and low records may vary slightly from our data, if they occured in-between our weather recording intervals... More about our weather records

Advertising

Bologna weather history for previous 24 hours

 ConditionsComfort  
Time TempWeatherWind HumidityBarometerVisibility
12:50 AM
Wed, Apr 22
57 °FClear.9 mph55%30.21 "Hg10 mi
12:20 AM57 °FClear.9 mph55%30.21 "Hg10 mi
11:50 PM
Tue, Apr 21
57 °FClear.12 mph59%30.21 "Hg10 mi
11:20 PM57 °FClear.9 mph59%30.21 "Hg10 mi
10:20 PM59 °FClear.5 mph59%30.18 "Hg10 mi
9:50 PM61 °FClear.6 mph55%30.18 "Hg10 mi
9:20 PM63 °FClear.3 mph56%30.18 "Hg10 mi
8:50 PM61 °FSunny.2 mph55%30.18 "Hg10 mi
8:20 PM64 °FSunny.No wind49%30.15 "Hg10 mi
7:50 PM68 °FSunny.1 mph43%30.15 "Hg10 mi
7:20 PM72 °FPassing clouds.3 mph33%30.15 "HgN/A
6:50 PM73 °FSunny.2 mph33%30.15 "Hg10 mi
6:20 PM73 °FSunny.2 mph36%30.15 "Hg10 mi
5:50 PM73 °FPassing clouds.3 mph33%30.18 "HgN/A
5:20 PM73 °FPassing clouds.6 mph33%30.18 "HgN/A
4:50 PM73 °FSunny.5 mph38%30.18 "Hg10 mi
4:20 PM73 °FPassing clouds.5 mph36%30.18 "HgN/A
3:50 PM73 °FSunny.3 mph33%30.18 "Hg10 mi
3:20 PM73 °FSunny.3 mph33%30.21 "Hg10 mi
2:50 PM73 °FPassing clouds.3 mph36%30.21 "HgN/A
2:20 PM72 °FPassing clouds.5 mph36%30.21 "HgN/A
1:50 PM72 °FSunny.2 mph41%30.21 "Hg10 mi
1:20 PM70 °FSunny.5 mph40%30.24 "Hg10 mi
12:50 PM68 °FSunny.5 mph43%30.24 "Hg10 mi
12:20 PM68 °FSunny.2 mph46%30.24 "Hg10 mi
11:50 AM66 °FSunny.2 mph49%30.24 "Hg10 mi
11:20 AM64 °FSunny.2 mph49%30.24 "Hg10 mi
10:50 AM63 °FPassing clouds.5 mph52%30.24 "HgN/A
10:20 AM61 °FPassing clouds.5 mph52%30.24 "HgN/A
9:50 AM59 °FPassing clouds.3 mph59%30.24 "HgN/A
9:20 AM57 °FPassing clouds.3 mph59%30.24 "HgN/A
8:50 AM55 °FPassing clouds.6 mph59%30.24 "HgN/A
8:20 AM54 °FSunny.9 mph63%30.24 "Hg10 mi
7:50 AM50 °FSunny.12 mph67%30.21 "Hg10 mi
7:20 AM48 °FClear.10 mph71%30.21 "Hg10 mi
6:50 AM48 °FClear.7 mph71%30.21 "Hg10 mi
6:20 AM46 °FClear.12 mph76%30.18 "Hg10 mi
5:50 AM48 °FClear.12 mph71%30.18 "Hg10 mi
5:20 AM48 °FClear.9 mph71%30.18 "Hg10 mi
4:50 AM48 °FClear.8 mph71%30.18 "Hg10 mi
4:20 AM48 °FClear.5 mph71%30.18 "Hg10 mi
3:50 AM48 °FClear.6 mph71%30.18 "Hg10 mi
3:20 AM48 °FClear.5 mph71%30.15 "Hg10 mi
2:50 AM50 °FClear.8 mph67%30.15 "Hg10 mi
2:20 AM50 °FClear.9 mph71%30.15 "Hg10 mi
Weather by CustomWeather, © 2015

See weather overviewHow to use our weather pages